Regional Weather Roundup
Issued by NWS Grand Forks, ND

Home | Current Version | Previous Version | Graphics & Text | Print | Product List | Glossary On
Versions: 1 2 3 4 5 6 7 8 9 10 11 12 13 14 15 16 17 18 19 20 21 22 23 24 25 26 27 28 29 30 31 32 33 34 35 36 37 38 39 40 41 42 43 44 45 46 47 48 49 50
576
ASUS43 KFGF 252031
RWRFGF
PRAIRIE TO PINES  WEATHER ROUNDUP
NATIONAL WEATHER SERVICE EASTERN NORTH DAKOTA/GRAND FORKS ND
300 PM CDT SAT MAR 25 2017

 **SATELLITE DATA USED TO AUGMENT SKY COVER AT AUTOMATED STATIONS**
 *****  WEATHER ACROSS EASTERN NORTH DAKOTA  *****

CITY           SKY/WX    TMP DP  RH WIND       PRES   REMARKS
GRAND FORKS    CLOUDY    36  33  89 S14       30.11F
GRAND FRKS AFB CLOUDY    36  32  87 S14       30.09F
DEVILS LAKE    FAIR      37  32  82 S15       30.01F
FARGO          CLOUDY    38  33  82 S15       30.11F
WAHPETON ARPT  CLOUDY    37  32  81 SE9G16    30.11F
$$

 ***** WEATHER ACROSS CENTRAL AND WESTERN NORTH DAKOTA  *****

CITY           SKY/WX    TMP DP  RH WIND       PRES   REMARKS
BISMARCK       FAIR      49  34  56 S13       29.97F
MINOT          FAIR      49  36  61 S14G23    29.89F
JAMESTOWN      FAIR      41  34  76 S12       30.02F
MINOT AFB      FAIR      46  38  72 SW18      29.88F
GARRISON         N/A     43  35  73 S12       29.92F
WILLISTON      FAIR      59  27  29 W14       29.88F
DICKINSON      FAIR      59  29  31 N6        29.87F
HETTINGER      FAIR      55  33  43 CALM      29.90F
$$

 *****  OTHER AIRPORT OBSERVATIONS IN OUR AREA  *****

CITY           SKY/WX    TMP DP  RH WIND       PRES   REMARKS
WALHALLA       NOT AVBL
GRAFTON AIRPOR CLOUDY    36  34  93 S18       30.10F
VALLEY CITY AR MIX PCPN  37  37 100 SE17      30.07F
CANDO          NOT AVBL
CAVALIER APRT  CLOUDY    36  32  87 S20       30.05F
GWINNER        CLOUDY    39  34  81 MISG      30.06F
SHEYENNE NWR     N/A     38  31  76 S9        29.95S
ROLLA          MOCLDY    34  34 100 S20       29.93F WCI  22
 ***** THE ABOVE OBSERVATIONS ARE NON NWS ARE NOT QUALITY
       CONTROLLED AND MAY MIS-REPORT RAIN FOR SNOW...
$$

  *****  WEATHER ACROSS NORTHERN MINNESOTA  *****

CITY           SKY/WX    TMP DP  RH WIND       PRES   REMARKS
FLAG ISLAND    FAIR      36  30  80 S6        30.13F
WARROAD        FAIR      43  32  65 S5        30.12F
ROSEAU         FAIR      43  32  65 S9        30.11F
HALLOCK        CLOUDY    37  34  87 S17       30.09F
THF RVR FALLS  PTSUNNY  N/A N/A N/A S6        30.12F
BAUDETTE       FAIR      44  29  55 SE8       30.12F
WASKISH        PTSUNNY   45  28  53 SE9       30.13F
CROOKSTON      PTSUNNY   41  34  75 S13       30.11F
STEPHEN NDAWN    N/A     37  32  81 S13         N/A
GREENBUSH NDAW   N/A     37  32  81 S12         N/A
$$
  *****  WEATHER ACROSS CENTRAL AND WEST MINNESOTA  *****

CITY           SKY/WX    TMP DP  RH WIND       PRES   REMARKS
FOSSTON        FAIR      48  39  71 SE6       30.09F
BEMIDJI        FAIR      42  29  61 E12G17    30.11F
PARK RAPIDS    FAIR      44  27  51 E8        30.09F
ELBOW LAKE     MOCLDY    41  31  69 SE8       30.10F
WADENA         FAIR      45  30  57 E9G16     30.08F
DETROIT LAKES  FAIR      45  32  61 SE10      30.08F
MOORHEAD       CLOUDY    37  34  87 S10       30.12F
FERGUS FALLS   FAIR      39  30  70 SE8       30.13F
MORRIS MN      CLOUDY    41  34  75 E8        30.08F
STAPLES        FAIR      43  28  56 E7        30.10F
$$
  *****  WEATHER ELSEWHERE ACROSS MINNESOTA  *****

CITY           SKY/WX    TMP DP  RH WIND       PRES   REMARKS
DULUTH         CLOUDY    33  29  85 E18G26    30.18F WCI  22
INTRNTL FALLS  FAIR      39  26  59 SE9       30.17F
ELY            FAIR      37  25  60 SE12      30.19F
CLOQUET        CLOUDY    36  28  75 E13G20    30.17F
WHEATON        CLOUDY    39  30  70 SE6       30.12F
BRAINERD       FAIR      42  29  59 VRB7      30.13F
HIBBING        CLOUDY    35  28  75 E14       30.17F
ALEXANDRIA     CLOUDY    41  31  67 E13       30.10F
SAINT CLOUD    CLOUDY    40  33  76 E12       30.11F
MINNEAPOLIS    CLOUDY    42  32  67 NE15      30.10F
$$

  *****  WEATHER ACROSS SOUTH DAKOTA  *****

CITY           SKY/WX    TMP DP  RH WIND       PRES   REMARKS
SIOUX FALLS    CLOUDY    44  38  79 E13       30.01F
BROOKINGS      CLOUDY    40  35  83 E13       30.03F
WATERTOWN      CLOUDY    37  32  82 E10       30.04F
HURON          FAIR      46  34  62 SE9       30.04F
SISSETON         N/A     37  32  82 S8        30.08F
ABERDEEN       FAIR      45  31  58 SE8       30.06F
MITCHELL       CLOUDY    42  36  79 NE7       30.05F
PIERRE         FAIR      53  33  46 SE15      29.95F
MOBRIDGE       FAIR      50  32  50 SE15      29.95F
RAPID CITY     FAIR      65  31  28 NW12      29.86F
$$

  *****  SOME WEATHER IN NEARBY STATES *****

CITY           SKY/WX    TMP DP  RH WIND       PRES   REMARKS
GLASGOW MT     FAIR      58  26  29 NW15      29.88F
GREAT FALLS MT FAIR      52  19  27 W12G23    29.92F
CHEYENNE WY    FAIR      58  23  26 SW9       29.94F
SCOTTSBLUFF NE FAIR      66  30  26 SE5       29.88F
OMAHA NE       CLOUDY    43  38  82 N12       29.94F
DES MOINES IA  CLOUDY    43  40  89 NE12      29.91F
DAVENPORT IA   CLOUDY    48  47  96 E16       29.91F
CHICAGO IL     CLOUDY    44  41  89 NE13      30.00F FOG
EAU CLAIRE WI  CLOUDY    41  33  73 E18G25    30.10F
LA CROSSE WI   LGT RAIN  41  36  82 NE9       30.07F
$$

  *****  SOME NATIONAL WEATHER *****

CITY           SKY/WX    TMP DP  RH WIND       PRES   REMARKS
LA GUARDIA NY  LGT RAIN  54  40  59 NE9       30.23R
RALEIGH NC     PTSUNNY   74  48  39 SW20      30.22F
ATLANTA GA     PTSUNNY   74  51  44 SE12G18   30.16F
NEW ORLEANS LA LGT RAIN  64  61  90 NW8       30.04F
OKLAHOMA CITY  CLOUDY    55  42  61 NW12      29.97F
ALBUQUERQUE NM PTSUNNY   64  19  17 SW8G18    30.01F
SALT LAKE CITY LGT RAIN  41  38  89 NW7       30.01F FOG
LOS ANGELES CA PTSUNNY   65  55  70 SW12      30.09F
BOISE ID       FAIR      53  33  46 N7        30.05F
SEATTLE WA     PTSUNNY   50  39  66 SW12      30.12S
$$

*** WEATHER ACROSS MANITOBA...SASKATCHEWAN AND ONTARIO ***
                ***ONTARIO***

CITY           SKY/WX    TMP DP  RH WIND       PRES   REMARKS
GERALDTON      PTSUNNY   32  -4  21 E12       30.35F WCI  23
THUNDER BAY    MOSUNNY   32  21  64 E12       30.34F WCI  23
SIOUX LOOKOUT  CLOUDY    41  18  38 SE10G17   30.19F
TORONTO        CLOUDY    39  32  75 E9        30.34S
BIG TROUT LK   SUNNY     28   5  37 S16       30.27F WCI  17
PICKLE LAKE    PTSUNNY   32   0  25 SE12G18   30.25F WCI  23
DRYDEN         PTSUNNY   41  23  48 SE15      30.16F
KENORA         PTSUNNY   39  27  60 S10       30.13F
$$
                *** MANITOBA***

CITY           SKY/WX    TMP DP  RH WIND       PRES   REMARKS
BRANDON        PTSUNNY   37  32  81 S16G23    29.91R
DAUPHIN        SUNNY     43  34  70 S18G29    29.78F
ISLAND LAKE    PTSUNNY   37  23  56 SE17G25   30.02F
PILOT MOUND      N/A     34  32  93 S23G29      N/A  WCI  22
THE PAS        CLOUDY    32  28  86 S20       29.68F WCI  20
THOMPSON       LGT SNOW  23  21  93 E9G17     29.86F VSB 1   WCI  13
WINNIPEG       CLOUDY    37  32  81 S26G38    30.04F
LYNN LAKE      LGT SNOW  19  18  93 E12G17    29.83F VSB 3/4 WCI   7
CHURCHILL      CLOUDY    16   5  62 SE13      30.22F WCI   2
GILLAM         CLOUDY    32   3  29 SE12G17   30.09F WCI  23
$$
                ***SASKATCHEWAN***

CITY           SKY/WX    TMP DP  RH WIND       PRES   REMARKS
ESTEVAN        MOSUNNY   57  37  47 SW12      29.83S
KINDERSLEY     MOSUNNY   54  32  43 W13G22    29.76F
LLOYDMINSTER   CLOUDY    36  30  80 NW8       29.76R
PRINCE ALBERT  CLOUDY    32  28  86 NW14      29.71R WCI  22
REGINA         MOSUNNY   55  36  47 W29G36    29.77R
YORKTON        SUNNY     52  37  58 S13G20    29.69F
N. BATTLEFORD  CLOUDY    37  36  93 NW14      29.78R
LA RONGE       FLURRIES  25  19  80 NE9       29.73S WCI  15
SASKATOON      CLOUDY    41  36  81 W18       29.77R
SWIFT CURRENT  MOSUNNY   52  32  46 NW20G25   29.80S
$$
NOTE: THESE ARE AUTOMATED STATIONS WITH LIMITED QUALITY CONTROL
      "FAIR" INDICATES FEW OR NO CLOUDS BELOW 12,000 FEET WITH NO
      SIGNIFICANT WEATHER AND/OR OBSTRUCTIONS TO VISIBILITY.
      SKY/WX - SKY CONDITION AND SIGNIFICANT WEATHER.
      TMP - AIR TEMPERATURE.    DP   - DEWPOINT TEMPERATURE.
      RH  - RELATIVE HUMIDITY.  PRES - PRESSURE.
      HX  - HEAT INDEX.         WCI  - WIND CHILL INDEX.
$




USA.gov is the U.S. government's official web portal to all federal, state and local government web resources and services.